SWA4204 KDEN-KSEA

Flight info

Callsign SWA4204
Flight time N/A
Altitude 34000
Route ZIMMR4 CHNGY PIH PDT CHINS5
Aircraft B737/M-SADE2E3GIJ4RWZ/LB1D1

Departure

Time N/A
Airport Denver International Airport (KDEN)

Arrival

Time 2026-05-04 00:22
Airport Seattle–Tacoma International Airport (KSEA)
Time Latitude Longitude Altitude Speed Heading
2026-05-03 23:53 46.22550 -120.11753 33907 ft 424 kts 327°
2026-05-03 23:53 46.24950 -120.14236 33890 ft 425 kts 327°
2026-05-03 23:53 46.29823 -120.19076 33882 ft 424 kts 329°
2026-05-03 23:54 46.34774 -120.23738 33286 ft 426 kts 329°
2026-05-03 23:54 46.37267 -120.26051 32677 ft 424 kts 329°
2026-05-03 23:54 46.39728 -120.28332 32238 ft 418 kts 329°
2026-05-03 23:55 46.42172 -120.30599 31739 ft 415 kts 329°
2026-05-03 23:55 46.44587 -120.32845 31248 ft 411 kts 329°
2026-05-03 23:55 46.46977 -120.35071 30750 ft 407 kts 329°
2026-05-03 23:55 46.49355 -120.37290 30296 ft 404 kts 329°
2026-05-03 23:56 46.51708 -120.39487 29814 ft 401 kts 329°
2026-05-03 23:56 46.54046 -120.41672 29275 ft 398 kts 329°
2026-05-03 23:56 46.56313 -120.43841 28781 ft 394 kts 325°
2026-05-03 23:56 46.58243 -120.46721 28282 ft 394 kts 308°
2026-05-03 23:57 46.59785 -120.49916 27800 ft 391 kts 307°
2026-05-03 23:57 46.61306 -120.53177 27290 ft 388 kts 306°
2026-05-03 23:57 46.62812 -120.56419 26806 ft 385 kts 306°
2026-05-03 23:57 46.64313 -120.59627 26330 ft 381 kts 306°
2026-05-03 23:58 46.65803 -120.62792 25857 ft 378 kts 307°
2026-05-03 23:58 46.67293 -120.65938 25385 ft 376 kts 307°
2026-05-03 23:58 46.68776 -120.69063 24913 ft 374 kts 307°
2026-05-03 23:58 46.70255 -120.72177 24439 ft 372 kts 307°
2026-05-03 23:59 46.71723 -120.75269 23964 ft 371 kts 306°
2026-05-03 23:59 46.72695 -120.77317 23652 ft 370 kts 306°
2026-05-03 23:59 46.74155 -120.80398 23113 ft 369 kts 306°
2026-05-03 23:59 46.76091 -120.84492 22433 ft 366 kts 306°
2026-05-04 00:00 46.77046 -120.86511 22104 ft 364 kts 306°
2026-05-04 00:00 46.78476 -120.89539 21625 ft 361 kts 306°
2026-05-04 00:00 46.79897 -120.92550 21149 ft 359 kts 306°
2026-05-04 00:00 46.81289 -120.95502 20701 ft 356 kts 306°
2026-05-04 00:01 46.83157 -120.99471 20075 ft 353 kts 306°
2026-05-04 00:01 46.84093 -121.01462 19765 ft 352 kts 306°
2026-05-04 00:01 46.85476 -121.04407 19305 ft 350 kts 306°
2026-05-04 00:01 46.86849 -121.07332 18843 ft 349 kts 306°
2026-05-04 00:02 46.88217 -121.10251 18377 ft 347 kts 306°
2026-05-04 00:02 46.89582 -121.13167 17851 ft 347 kts 306°
2026-05-04 00:02 46.90922 -121.16029 17357 ft 345 kts 306°
2026-05-04 00:02 46.92271 -121.18919 16865 ft 342 kts 306°
2026-05-04 00:03 46.93608 -121.21784 16397 ft 340 kts 306°
2026-05-04 00:03 46.94933 -121.24625 15920 ft 337 kts 305°
2026-05-04 00:03 46.96245 -121.27441 15490 ft 334 kts 305°
2026-05-04 00:03 46.97546 -121.30241 15028 ft 331 kts 305°
2026-05-04 00:04 46.98840 -121.33025 14585 ft 329 kts 305°
2026-05-04 00:04 47.00120 -121.35785 14175 ft 326 kts 305°
2026-05-04 00:04 47.01391 -121.38524 13746 ft 324 kts 305°
2026-05-04 00:04 47.02658 -121.41257 13247 ft 323 kts 304°
2026-05-04 00:05 47.03915 -121.43971 12774 ft 320 kts 304°
2026-05-04 00:05 47.05161 -121.46666 12302 ft 318 kts 305°
2026-05-04 00:05 47.06391 -121.49230 12156 ft 305 kts 305°
2026-05-04 00:05 47.07555 -121.51769 11978 ft 295 kts 304°
2026-05-04 00:06 47.08678 -121.54257 11829 ft 291 kts 304°
2026-05-04 00:06 47.09807 -121.56725 11694 ft 293 kts 304°
2026-05-04 00:06 47.10955 -121.59225 11531 ft 296 kts 305°
2026-05-04 00:06 47.12110 -121.61733 11387 ft 299 kts 304°
2026-05-04 00:07 47.13276 -121.64272 11235 ft 300 kts 304°
2026-05-04 00:07 47.14442 -121.66814 11072 ft 299 kts 304°
2026-05-04 00:07 47.15601 -121.69342 10910 ft 297 kts 304°
2026-05-04 00:07 47.16755 -121.71860 10752 ft 296 kts 304°
2026-05-04 00:08 47.17901 -121.74362 10598 ft 294 kts 304°
2026-05-04 00:08 47.19038 -121.76848 10447 ft 293 kts 304°
2026-05-04 00:08 47.20174 -121.79333 10295 ft 292 kts 304°
2026-05-04 00:08 47.21299 -121.81796 10128 ft 287 kts 303°
2026-05-04 00:09 47.22375 -121.84153 9967 ft 277 kts 303°
2026-05-04 00:09 47.23435 -121.86480 9830 ft 272 kts 303°
2026-05-04 00:09 47.24486 -121.88786 9679 ft 272 kts 303°
2026-05-04 00:09 47.25541 -121.91104 9537 ft 272 kts 303°
2026-05-04 00:10 47.26597 -121.93427 9387 ft 275 kts 303°
2026-05-04 00:10 47.27665 -121.95779 9235 ft 276 kts 303°
2026-05-04 00:10 47.28731 -121.98126 9071 ft 275 kts 303°
2026-05-04 00:10 47.29793 -122.00463 8942 ft 273 kts 303°
2026-05-04 00:11 47.30845 -122.02789 8792 ft 272 kts 303°
2026-05-04 00:11 47.31895 -122.05111 8639 ft 272 kts 303°
2026-05-04 00:11 47.32943 -122.07427 8498 ft 271 kts 303°
2026-05-04 00:11 47.33992 -122.09746 8353 ft 271 kts 303°
2026-05-04 00:12 47.35031 -122.12047 8217 ft 270 kts 303°
2026-05-04 00:12 47.36067 -122.14347 8070 ft 269 kts 304°
2026-05-04 00:12 47.36804 -122.16863 7950 ft 268 kts 278°
2026-05-04 00:12 47.36860 -122.19578 7785 ft 264 kts 269°
2026-05-04 00:13 47.36768 -122.22285 7415 ft 265 kts 268°
2026-05-04 00:13 47.36632 -122.25007 7011 ft 267 kts 267°
2026-05-04 00:13 47.36499 -122.27718 6770 ft 263 kts 268°
2026-05-04 00:13 47.36360 -122.30399 6426 ft 262 kts 266°
2026-05-04 00:14 47.35866 -122.32993 6018 ft 267 kts 244°
2026-05-04 00:14 47.34934 -122.35350 5681 ft 266 kts 236°
2026-05-04 00:14 47.33553 -122.37167 5296 ft 271 kts 208°
2026-05-04 00:14 47.31824 -122.38157 4999 ft 269 kts 199°
2026-05-04 00:15 47.30043 -122.39009 4590 ft 271 kts 199°
2026-05-04 00:15 47.28248 -122.39840 4310 ft 269 kts 198°
2026-05-04 00:15 47.26470 -122.40644 4041 ft 266 kts 197°
2026-05-04 00:15 47.24683 -122.41312 3982 ft 264 kts 194°
2026-05-04 00:16 47.22897 -122.41948 3994 ft 264 kts 194°
2026-05-04 00:16 47.21089 -122.42535 3985 ft 269 kts 185°
2026-05-04 00:16 47.19282 -122.42002 3986 ft 268 kts 148°
2026-05-04 00:16 47.18028 -122.40053 3999 ft 265 kts 112°
2026-05-04 00:17 47.17777 -122.37438 3978 ft 259 kts 76°
2026-05-04 00:17 47.18368 -122.35019 3983 ft 243 kts 62°
2026-05-04 00:17 47.19326 -122.33136 3958 ft 225 kts 32°
2026-05-04 00:17 47.20771 -122.32466 4005 ft 220 kts
2026-05-04 00:18 47.22279 -122.32183 3981 ft 217 kts
2026-05-04 00:18 47.23769 -122.32013 3976 ft 213 kts
2026-05-04 00:18 47.25259 -122.31962 3908 ft 217 kts
2026-05-04 00:18 47.26799 -122.31944 3664 ft 224 kts
2026-05-04 00:19 47.28356 -122.31932 3365 ft 221 kts
2026-05-04 00:19 47.29872 -122.31927 3077 ft 218 kts 357°
2026-05-04 00:19 47.31346 -122.32102 2813 ft 209 kts
2026-05-04 00:19 47.32738 -122.31787 2555 ft 202 kts
2026-05-04 00:20 47.34134 -122.31918 2294 ft 196 kts 359°
2026-05-04 00:20 47.35447 -122.31893 2047 ft 186 kts
2026-05-04 00:20 47.36717 -122.31866 1824 ft 178 kts
2026-05-04 00:20 47.37934 -122.31856 1576 ft 174 kts
2026-05-04 00:21 47.39107 -122.31849 1375 ft 166 kts 360°
2026-05-04 00:21 47.40243 -122.31836 1154 ft 161 kts
2026-05-04 00:21 47.41323 -122.31830 990 ft 147 kts
2026-05-04 00:21 47.42333 -122.31820 732 ft 136 kts 359°
2026-05-04 00:22 47.43246 -122.31813 593 ft 129 kts 360°
2026-05-04 00:22 47.44182 -122.31806 413 ft 129 kts
2026-05-04 00:22 47.44989 -122.31794 391 ft 87 kts
2026-05-04 00:22 47.45366 -122.31713 395 ft 43 kts 28°
2026-05-04 00:23 47.45502 -122.31418 410 ft 31 kts 84°
2026-05-04 00:23 47.45503 -122.31219 409 ft 15 kts 92°
2026-05-04 00:23 47.45504 -122.31062 421 ft 15 kts 91°
2026-05-04 00:23 47.45517 -122.30914 417 ft 13 kts 51°
2026-05-04 00:24 47.45563 -122.30842 418 ft 6 kts 53°
2026-05-04 00:24 47.45570 -122.30796 428 ft 5 kts 78°
2026-05-04 00:24 47.45570 -122.30716 422 ft 9 kts 107°
2026-05-04 00:24 47.45526 -122.30656 427 ft 9 kts 152°
2026-05-04 00:25 47.45466 -122.30624 426 ft 11 kts 172°
2026-05-04 00:25 47.45348 -122.30623 416 ft 24 kts 180°
2026-05-04 00:25 47.45154 -122.30621 412 ft 30 kts 179°
2026-05-04 00:25 47.44939 -122.30618 409 ft 31 kts 183°
2026-05-04 00:26 47.44722 -122.30628 402 ft 27 kts 180°
2026-05-04 00:26 47.44608 -122.30620 399 ft 2 kts 172°
2026-05-04 00:26 47.44555 -122.30612 395 ft 18 kts 179°
2026-05-04 00:26 47.44410 -122.30621 393 ft 23 kts 183°
2026-05-04 00:27 47.44248 -122.30627 389 ft 24 kts 181°
2026-05-04 00:27 47.44083 -122.30627 385 ft 22 kts 179°
2026-05-04 00:27 47.43993 -122.30574 383 ft 13 kts 100°
2026-05-04 00:27 47.43992 -122.30446 384 ft 12 kts 90°
2026-05-04 00:28 47.44003 -122.30333 386 ft 7 kts 56°
2026-05-04 00:28 47.44037 -122.30329 386 ft 5 kts 349°
2026-05-04 00:28 47.44060 -122.30337 387 ft 1 kts 347°
2026-05-04 00:28 47.44063 -122.30338 387 ft 0 kts 345°